Home   Weather   Istanbul   Past weeks
Flag for Turkey

Past Weather in Istanbul, Turkey — Yesterday and Last 2 Weeks

Now
46 °F

Partly sunny.


Feels Like: 39 °F
Forecast: 53 / 42 °F
Wind: 21 mph from Northeast

Location: Istanbul Ataturk Airport

Current Time: Apr 2, 2020 at 10:00:08 am

Latest Report: Apr 2, 2020 at 9:20 am


Visibility: N/A

Pressure: 29.89 "Hg

Humidity: 82%

Dew Point: 41 °F

Location of IstanbulLocation

Past Weather in Istanbul — Graph

°F

Istanbul Temperature Yesterday

Maximum temperature yesterday: 48 °F (at 12:20 pm)
Minimum temperature yesterday: 43 °F (at 3:20 am)
Average temperature yesterday: 46 °F

High & Low Weather Summary for the Past Weeks

 TemperatureHumidityPressure
High64 °F (Mar 22, 3:50 pm)94% (Mar 24, 1:50 am)30.33 "Hg (Mar 24, 1:50 am)
Low37 °F (Mar 21, 7:20 am)40% (Mar 19, 5:20 pm)29.77 "Hg (Mar 29, 6:50 am)
Average48 °F78%30.03 "Hg
* Reported Mar 18 8:20 am — Apr 2 8:20 am, Istanbul. Weather by CustomWeather, © 2020

Note: Actual official high and low records may vary slightly from our data, if they occured in-between our weather recording intervals... More about our weather records

Istanbul Weather History for the Previous 24 Hours

Scroll right to see more
 ConditionsComfort  
Time TempWeatherWind HumidityBarometerVisibility
8:20 am
Thu, Apr 2
46 °FBroken clouds.18 mph82%29.86 "HgN/A
7:50 am46 °FBroken clouds.18 mph82%29.89 "HgN/A
7:20 am46 °FBroken clouds.17 mph82%29.89 "HgN/A
6:50 am46 °FBroken clouds.14 mph82%29.89 "HgN/A
6:20 am46 °FPartly cloudy.15 mph82%29.89 "HgN/A
5:50 am48 °FPartly cloudy.15 mph76%29.89 "HgN/A
5:20 am48 °FPassing clouds.14 mph76%29.89 "HgN/A
4:50 am48 °FPassing clouds.14 mph76%29.92 "HgN/A
4:20 am48 °FPassing clouds.10 mph76%29.92 "HgN/A
3:50 am48 °FPassing clouds.13 mph82%29.89 "HgN/A
3:20 am48 °FPassing clouds.14 mph82%29.92 "HgN/A
2:50 am48 °FPassing clouds.12 mph82%29.92 "HgN/A
2:20 am48 °FPartly cloudy.14 mph82%29.95 "HgN/A
1:50 am48 °FPassing clouds.12 mph82%29.95 "HgN/A
1:20 am48 °FPassing clouds.12 mph82%29.95 "HgN/A
12:50 am48 °FPassing clouds.12 mph82%29.95 "HgN/A
12:20 am48 °FPassing clouds.9 mph82%29.95 "HgN/A
11:50 pm
Wed, Apr 1
48 °FPassing clouds.13 mph82%29.95 "HgN/A
11:20 pm46 °FPartly cloudy.16 mph87%29.95 "HgN/A
10:50 pm46 °FPartly cloudy.13 mph87%29.95 "HgN/A
10:20 pm46 °FPartly cloudy.13 mph87%29.98 "HgN/A
9:50 pm46 °FPartly cloudy.10 mph87%29.98 "HgN/A
9:20 pm46 °FPartly cloudy.12 mph87%29.98 "HgN/A
8:50 pm46 °FPartly cloudy.13 mph82%29.98 "HgN/A
8:20 pm45 °FPartly cloudy.12 mph87%29.98 "HgN/A
7:50 pm45 °FPartly cloudy.16 mph87%29.98 "HgN/A
7:20 pm45 °FBroken clouds.15 mph87%29.98 "HgN/A
6:50 pm46 °FBroken clouds.18 mph82%29.98 "HgN/A
6:20 pm46 °FBroken clouds.16 mph82%29.98 "HgN/A
5:50 pm46 °FBroken clouds.16 mph82%29.98 "HgN/A
5:20 pm46 °FBroken clouds.15 mph82%30.01 "HgN/A
4:50 pm46 °FBroken clouds.14 mph82%30.01 "HgN/A
4:20 pm46 °FBroken clouds.16 mph82%30.01 "HgN/A
3:50 pm48 °FBroken clouds.16 mph76%30.01 "HgN/A
3:20 pm48 °FBroken clouds.16 mph76%30.01 "HgN/A
2:50 pm48 °FBroken clouds.14 mph76%30.01 "HgN/A
2:20 pm48 °FBroken clouds.16 mph71%30.01 "HgN/A
1:50 pm48 °FBroken clouds.16 mph76%30.04 "HgN/A
1:20 pm48 °FBroken clouds.18 mph76%30.04 "HgN/A
12:50 pm48 °FPartly sunny.17 mph76%30.04 "HgN/A
12:20 pm48 °FPartly sunny.18 mph71%30.04 "HgN/A
11:50 am46 °FPartly sunny.20 mph76%30.04 "HgN/A
11:20 am46 °FBroken clouds.17 mph76%30.04 "HgN/A
10:50 am46 °FMore clouds than sun.15 mph76%30.07 "HgN/A
10:20 am46 °FMore clouds than sun.15 mph76%30.07 "HgN/A
Weather by CustomWeather, © 2020

See weather overview

Advertising